TOM9DG LIRN-EGKK

Flight info

Callsign TOM9DG
Flight time 2h 23m
Altitude 38000
Route EDOPA DCT VEXUV DCT PNZ DCT TOBGA DCT DOBIM DCT PIGOS DCT BARSO DCT OKTET DCT GIPNO DCT BULOL DCT IDAVO DCT BAGBI DCT SIZZA DCT LAULY DCT BRY DCT CLM DCT KOPOR DCT KESAX DCT KUNAV
Aircraft B738/M-SDE2E3FGHIRWXY/LB1

Departure

Time 2026-05-06 13:12
Airport Naples International Airport (LIRN)

Arrival

Time 2026-05-06 15:35
Airport London Gatwick Airport (EGKK)
Time Latitude Longitude Altitude Speed Heading
2026-05-06 12:56 40.88013 14.28312 292 ft 0 kts 334°
2026-05-06 13:04 40.88014 14.28312 293 ft 1 kts 334°
2026-05-06 13:05 40.88032 14.28301 292 ft 4 kts 344°
2026-05-06 13:05 40.88058 14.28327 291 ft 6 kts 73°
2026-05-06 13:05 40.88056 14.28403 290 ft 9 kts 97°
2026-05-06 13:05 40.88047 14.28493 286 ft 10 kts 98°
2026-05-06 13:06 40.88043 14.28592 285 ft 12 kts 77°
2026-05-06 13:06 40.88089 14.28684 282 ft 13 kts 49°
2026-05-06 13:06 40.88143 14.28775 280 ft 12 kts 52°
2026-05-06 13:06 40.88194 14.28864 278 ft 12 kts 52°
2026-05-06 13:07 40.88250 14.28963 274 ft 14 kts 53°
2026-05-06 13:07 40.88311 14.29069 272 ft 14 kts 53°
2026-05-06 13:07 40.88372 14.29173 267 ft 15 kts 51°
2026-05-06 13:07 40.88442 14.29294 261 ft 17 kts 52°
2026-05-06 13:08 40.88516 14.29421 256 ft 18 kts 51°
2026-05-06 13:08 40.88596 14.29556 251 ft 19 kts 53°
2026-05-06 13:08 40.88674 14.29693 247 ft 18 kts 52°
2026-05-06 13:08 40.88749 14.29825 243 ft 18 kts 53°
2026-05-06 13:09 40.88822 14.29952 241 ft 17 kts 53°
2026-05-06 13:09 40.88896 14.30082 238 ft 18 kts 51°
2026-05-06 13:09 40.88973 14.30213 231 ft 18 kts 54°
2026-05-06 13:09 40.89050 14.30345 225 ft 20 kts 51°
2026-05-06 13:10 40.89151 14.30453 222 ft 19 kts 357°
2026-05-06 13:10 40.89201 14.30341 225 ft 6 kts 238°
2026-05-06 13:10 40.89201 14.30340 225 ft 0 kts 238°
2026-05-06 13:11 40.89200 14.30339 225 ft 2 kts 238°
2026-05-06 13:11 40.89040 14.30007 240 ft 84 kts 236°
2026-05-06 13:11 40.88596 14.29072 267 ft 157 kts 237°
2026-05-06 13:11 40.87960 14.27668 731 ft 189 kts 236°
2026-05-06 13:12 40.87213 14.26268 1903 ft 181 kts 218°
2026-05-06 13:12 40.86069 14.25742 3008 ft 184 kts 176°
2026-05-06 13:12 40.84766 14.26083 3805 ft 193 kts 170°
2026-05-06 13:12 40.83458 14.26463 4836 ft 190 kts 170°
2026-05-06 13:13 40.82191 14.26835 5904 ft 183 kts 172°
2026-05-06 13:13 40.80934 14.27098 6764 ft 185 kts 176°
2026-05-06 13:13 40.79595 14.27315 7272 ft 205 kts 178°
2026-05-06 13:13 40.78142 14.27531 7690 ft 215 kts 176°
2026-05-06 13:14 40.76680 14.27757 8364 ft 210 kts 177°
2026-05-06 13:14 40.75201 14.27981 8730 ft 223 kts 177°
2026-05-06 13:14 40.73587 14.28221 8908 ft 243 kts 177°
2026-05-06 13:14 40.71840 14.28367 9122 ft 257 kts 192°
2026-05-06 13:15 40.70163 14.27514 9357 ft 270 kts 214°
2026-05-06 13:15 40.68631 14.26007 9924 ft 278 kts 222°
2026-05-06 13:15 40.67173 14.24338 10437 ft 290 kts 223°
2026-05-06 13:15 40.65603 14.22495 10604 ft 314 kts 223°
2026-05-06 13:16 40.63919 14.20528 10913 ft 331 kts 223°
2026-05-06 13:16 40.62170 14.18507 11533 ft 337 kts 222°
2026-05-06 13:16 40.60575 14.16254 12258 ft 338 kts 240°
2026-05-06 13:16 40.59874 14.13332 13044 ft 338 kts 263°
2026-05-06 13:17 40.59895 14.10234 13820 ft 342 kts 276°
2026-05-06 13:17 40.60275 14.07123 14443 ft 346 kts 278°
2026-05-06 13:17 40.60718 14.04036 15043 ft 350 kts 278°
2026-05-06 13:17 40.61182 14.00880 15690 ft 353 kts 278°
2026-05-06 13:18 40.61644 13.97695 16322 ft 356 kts 278°
2026-05-06 13:18 40.62099 13.94479 16946 ft 359 kts 278°
2026-05-06 13:18 40.62548 13.91233 17560 ft 362 kts 277°
2026-05-06 13:18 40.62995 13.87955 18175 ft 365 kts 277°
2026-05-06 13:19 40.63440 13.84648 18710 ft 369 kts 277°
2026-05-06 13:19 40.63887 13.81307 19202 ft 372 kts 277°
2026-05-06 13:19 40.64335 13.77945 19761 ft 374 kts 277°
2026-05-06 13:19 40.64777 13.74614 20312 ft 375 kts 277°
2026-05-06 13:20 40.65227 13.71217 20841 ft 378 kts 277°
2026-05-06 13:20 40.65678 13.67802 21353 ft 380 kts 277°
2026-05-06 13:20 40.66131 13.64360 21862 ft 382 kts 277°
2026-05-06 13:20 40.66586 13.60900 22372 ft 385 kts 277°
2026-05-06 13:21 40.67043 13.57415 22864 ft 387 kts 277°
2026-05-06 13:21 40.67501 13.53910 23345 ft 390 kts 277°
2026-05-06 13:21 40.67956 13.50430 23775 ft 392 kts 277°
2026-05-06 13:21 40.68417 13.46887 24229 ft 392 kts 276°
2026-05-06 13:22 40.68878 13.43342 24689 ft 393 kts 276°
2026-05-06 13:22 40.69339 13.39790 25109 ft 394 kts 276°
2026-05-06 13:22 40.69799 13.36228 25506 ft 395 kts 276°
2026-05-06 13:22 40.70442 13.32686 25890 ft 401 kts 285°
2026-05-06 13:23 40.71521 13.29279 26285 ft 406 kts 291°
2026-05-06 13:23 40.72935 13.26026 26668 ft 413 kts 300°
2026-05-06 13:23 40.74670 13.23044 27036 ft 417 kts 303°
2026-05-06 13:23 40.76497 13.20060 27385 ft 419 kts 303°
2026-05-06 13:24 40.78337 13.17072 27735 ft 421 kts 303°
2026-05-06 13:24 40.80176 13.14064 28078 ft 422 kts 303°
2026-05-06 13:24 40.82015 13.11030 28450 ft 423 kts 302°
2026-05-06 13:24 40.83848 13.07987 28801 ft 424 kts 302°
2026-05-06 13:25 40.85683 13.04926 29125 ft 426 kts 302°
2026-05-06 13:25 40.87523 13.01852 29453 ft 427 kts 302°
2026-05-06 13:25 40.89342 12.98811 29760 ft 428 kts 302°
2026-05-06 13:25 40.91197 12.95715 30073 ft 430 kts 302°
2026-05-06 13:26 40.93125 12.92689 30426 ft 431 kts 304°
2026-05-06 13:26 40.95107 12.89729 30850 ft 428 kts 305°
2026-05-06 13:26 40.97096 12.86811 31258 ft 426 kts 305°
2026-05-06 13:26 40.99078 12.83911 31596 ft 425 kts 304°
2026-05-06 13:27 41.01055 12.81005 31894 ft 424 kts 304°
2026-05-06 13:27 41.02998 12.78136 32223 ft 423 kts 304°
2026-05-06 13:27 41.04952 12.75236 32549 ft 422 kts 303°
2026-05-06 13:27 41.06905 12.72323 32821 ft 423 kts 303°
2026-05-06 13:28 41.08858 12.69404 33086 ft 423 kts 304°
2026-05-06 13:28 41.10809 12.66484 33402 ft 422 kts 303°
2026-05-06 13:28 41.12748 12.63579 33773 ft 420 kts 303°
2026-05-06 13:28 41.14678 12.60686 34114 ft 418 kts 303°
2026-05-06 13:29 41.16602 12.57798 34342 ft 418 kts 303°
2026-05-06 13:29 41.18501 12.54941 34521 ft 419 kts 303°
2026-05-06 13:29 41.20428 12.52041 34730 ft 419 kts 303°
2026-05-06 13:29 41.22353 12.49141 34974 ft 418 kts 303°
2026-05-06 13:30 41.24276 12.46244 35198 ft 418 kts 303°
2026-05-06 13:30 41.26197 12.43345 35400 ft 418 kts 304°
2026-05-06 13:30 41.28116 12.40446 35624 ft 418 kts 303°
2026-05-06 13:30 41.30036 12.37545 35836 ft 418 kts 303°
2026-05-06 13:31 41.31956 12.34639 36016 ft 418 kts 303°
2026-05-06 13:31 41.33876 12.31731 36173 ft 420 kts 304°
2026-05-06 13:31 41.35779 12.28842 36288 ft 421 kts 304°
2026-05-06 13:31 41.37713 12.25908 36516 ft 421 kts 304°
2026-05-06 13:32 41.39641 12.22981 36716 ft 420 kts 304°
2026-05-06 13:32 41.41568 12.20051 36880 ft 421 kts 304°
2026-05-06 13:32 41.43496 12.17117 37020 ft 422 kts 304°
2026-05-06 13:32 41.45429 12.14172 37179 ft 422 kts 304°
2026-05-06 13:33 41.47361 12.11226 37354 ft 422 kts 304°
2026-05-06 13:33 41.49264 12.08321 37522 ft 422 kts 304°
2026-05-06 13:33 41.51195 12.05372 37673 ft 422 kts 304°
2026-05-06 13:33 41.53126 12.02418 37856 ft 422 kts 304°
2026-05-06 13:34 41.55054 11.99466 37988 ft 423 kts 304°
2026-05-06 13:34 41.58929 11.93523 37996 ft 424 kts 304°
2026-05-06 13:35 41.62708 11.87721 37977 ft 421 kts 304°
2026-05-06 13:35 41.66541 11.81824 37977 ft 419 kts 304°
2026-05-06 13:36 41.70346 11.75957 37985 ft 417 kts 304°
2026-05-06 13:36 41.74133 11.70102 37973 ft 415 kts 304°
2026-05-06 13:37 41.77892 11.64280 37992 ft 418 kts 304°
2026-05-06 13:37 41.81716 11.58340 37980 ft 424 kts 304°
2026-05-06 13:38 41.85590 11.52315 37980 ft 429 kts 304°
2026-05-06 13:38 41.89506 11.46215 37965 ft 434 kts 304°
2026-05-06 13:39 41.93407 11.40133 37944 ft 430 kts 304°
2026-05-06 13:39 41.97268 11.34105 37957 ft 423 kts 304°
2026-05-06 13:40 42.01089 11.28116 37962 ft 421 kts 304°
2026-05-06 13:40 42.04895 11.22136 37960 ft 420 kts 304°
2026-05-06 13:41 42.08668 11.16195 37961 ft 421 kts 304°
2026-05-06 13:41 42.12474 11.10193 37959 ft 422 kts 304°
2026-05-06 13:42 42.16284 11.04170 37953 ft 423 kts 304°
2026-05-06 13:42 42.20110 10.98113 37951 ft 425 kts 304°
2026-05-06 13:43 42.23923 10.92064 37948 ft 427 kts 304°
2026-05-06 13:43 42.27775 10.85941 37939 ft 428 kts 304°
2026-05-06 13:44 42.30983 10.80831 37944 ft 430 kts 304°
2026-05-06 13:44 42.34387 10.75401 37941 ft 430 kts 304°
2026-05-06 13:45 42.38230 10.69258 37934 ft 431 kts 303°
2026-05-06 13:45 42.43974 10.60054 37933 ft 430 kts 303°
2026-05-06 13:46 42.47826 10.53866 37936 ft 429 kts 303°
2026-05-06 13:46 42.51667 10.47680 37924 ft 428 kts 303°
2026-05-06 13:47 42.55464 10.41552 37932 ft 427 kts 303°
2026-05-06 13:47 42.59277 10.35386 37922 ft 426 kts 303°
2026-05-06 13:48 42.63073 10.29234 37924 ft 425 kts 303°
2026-05-06 13:48 42.66858 10.23087 37923 ft 424 kts 303°
2026-05-06 13:49 42.70615 10.16973 37926 ft 424 kts 303°
2026-05-06 13:49 42.74394 10.10809 37930 ft 424 kts 302°
2026-05-06 13:50 42.78167 10.04643 37926 ft 425 kts 302°
2026-05-06 13:50 42.81951 9.98446 37924 ft 426 kts 302°
2026-05-06 13:51 42.85713 9.92272 37925 ft 427 kts 302°
2026-05-06 13:51 42.89512 9.86030 37922 ft 428 kts 303°
2026-05-06 13:52 42.93478 9.79918 37923 ft 432 kts 305°
2026-05-06 13:52 42.97538 9.73866 37922 ft 433 kts 305°
2026-05-06 13:53 43.01562 9.67830 37916 ft 433 kts 304°
2026-05-06 13:53 43.05602 9.61714 37922 ft 433 kts 304°
2026-05-06 13:54 43.09625 9.55591 37918 ft 433 kts 304°
2026-05-06 13:54 43.13638 9.49466 37916 ft 432 kts 304°
2026-05-06 13:55 43.16966 9.44377 37927 ft 431 kts 304°
2026-05-06 13:55 43.20962 9.38255 37913 ft 431 kts 304°
2026-05-06 13:56 43.24923 9.32173 37912 ft 430 kts 304°
2026-05-06 13:56 43.28903 9.26049 37918 ft 430 kts 304°
2026-05-06 13:57 43.32875 9.19924 37905 ft 429 kts 304°
2026-05-06 13:57 43.36841 9.13798 37907 ft 429 kts 304°
2026-05-06 13:58 43.40617 9.07950 37913 ft 429 kts 304°
2026-05-06 13:58 43.44552 9.01844 37903 ft 430 kts 304°
2026-05-06 13:59 43.48517 8.95678 37926 ft 430 kts 304°
2026-05-06 13:59 43.52486 8.89492 37902 ft 432 kts 304°
2026-05-06 14:00 43.56447 8.83307 37887 ft 433 kts 304°
2026-05-06 14:00 43.60402 8.77119 37888 ft 433 kts 304°
2026-05-06 14:01 43.64386 8.70870 37901 ft 434 kts 304°
2026-05-06 14:01 43.68375 8.64601 37878 ft 434 kts 304°
2026-05-06 14:02 43.72361 8.58322 37876 ft 435 kts 303°
2026-05-06 14:02 43.76323 8.52067 37870 ft 435 kts 303°
2026-05-06 14:03 43.80306 8.45765 37856 ft 435 kts 303°
2026-05-06 14:03 43.84282 8.39461 37843 ft 434 kts 303°
2026-05-06 14:04 43.88250 8.33156 37842 ft 434 kts 303°
2026-05-06 14:04 43.92187 8.26885 37836 ft 434 kts 303°
2026-05-06 14:05 43.96146 8.20566 37835 ft 434 kts 303°
2026-05-06 14:05 44.00104 8.14234 37830 ft 434 kts 303°
2026-05-06 14:06 44.04035 8.07932 37832 ft 435 kts 303°
2026-05-06 14:06 44.07993 8.01572 37833 ft 435 kts 303°
2026-05-06 14:07 44.11954 7.95191 37847 ft 436 kts 304°
2026-05-06 14:07 44.15921 7.88788 37835 ft 438 kts 304°
2026-05-06 14:08 44.19900 7.82352 37807 ft 439 kts 304°
2026-05-06 14:08 44.23855 7.75941 37810 ft 439 kts 304°
2026-05-06 14:09 44.27832 7.69479 37811 ft 439 kts 303°
2026-05-06 14:09 44.31811 7.62999 37809 ft 440 kts 303°
2026-05-06 14:10 44.35790 7.56504 37819 ft 440 kts 304°
2026-05-06 14:10 44.39744 7.50033 37814 ft 441 kts 304°
2026-05-06 14:11 44.43732 7.43492 37801 ft 442 kts 304°
2026-05-06 14:11 44.47726 7.36929 37801 ft 443 kts 304°
2026-05-06 14:12 44.51727 7.30337 37803 ft 445 kts 304°
2026-05-06 14:12 44.55707 7.23765 37812 ft 445 kts 304°
2026-05-06 14:13 44.59711 7.17139 37802 ft 445 kts 304°
2026-05-06 14:13 44.63702 7.10521 37825 ft 444 kts 304°
2026-05-06 14:14 44.67679 7.03909 37820 ft 442 kts 304°
2026-05-06 14:14 44.71607 6.97361 37843 ft 440 kts 304°
2026-05-06 14:15 44.75536 6.90810 37817 ft 435 kts 303°
2026-05-06 14:15 44.79423 6.84297 37876 ft 434 kts 303°
2026-05-06 14:16 44.83332 6.77722 37880 ft 441 kts 303°
2026-05-06 14:16 44.87274 6.71083 37867 ft 446 kts 303°
2026-05-06 14:17 44.91259 6.64369 37879 ft 447 kts 303°
2026-05-06 14:17 44.95246 6.57634 37880 ft 447 kts 303°
2026-05-06 14:18 44.99208 6.50924 37899 ft 448 kts 303°
2026-05-06 14:18 45.03193 6.44156 37902 ft 448 kts 304°
2026-05-06 14:19 45.07168 6.37391 37903 ft 446 kts 303°
2026-05-06 14:19 45.11117 6.30655 37926 ft 444 kts 304°
2026-05-06 14:20 45.15052 6.23924 37933 ft 443 kts 303°
2026-05-06 14:20 45.18943 6.17251 37925 ft 441 kts 303°
2026-05-06 14:21 45.22843 6.10546 37943 ft 440 kts 304°
2026-05-06 14:21 45.26731 6.03848 37919 ft 439 kts 304°
2026-05-06 14:22 45.30608 5.97154 37917 ft 439 kts 304°
2026-05-06 14:22 45.34460 5.90484 37927 ft 440 kts 304°
2026-05-06 14:23 45.38348 5.83736 37915 ft 441 kts 304°
2026-05-06 14:23 45.42240 5.76967 37938 ft 444 kts 304°
2026-05-06 14:24 45.46157 5.70137 37939 ft 447 kts 304°
2026-05-06 14:24 45.50066 5.63306 37933 ft 449 kts 304°
2026-05-06 14:25 45.54016 5.56388 37938 ft 451 kts 305°
2026-05-06 14:25 45.58682 5.50291 37932 ft 462 kts 323°
2026-05-06 14:26 45.64167 5.45452 37936 ft 464 kts 325°
2026-05-06 14:26 45.69071 5.41189 37926 ft 464 kts 324°
2026-05-06 14:27 45.74562 5.36325 37938 ft 464 kts 324°
2026-05-06 14:27 45.80027 5.31420 37925 ft 463 kts 324°
2026-05-06 14:28 45.85478 5.26509 37940 ft 462 kts 324°
2026-05-06 14:28 45.90915 5.21601 37931 ft 461 kts 324°
2026-05-06 14:29 45.96298 5.16733 37930 ft 460 kts 324°
2026-05-06 14:29 46.01698 5.11838 37936 ft 459 kts 324°
2026-05-06 14:30 46.07252 5.07284 37930 ft 461 kts 333°
2026-05-06 14:30 46.13123 5.03674 37920 ft 462 kts 334°
2026-05-06 14:31 46.19029 5.00031 37921 ft 462 kts 333°
2026-05-06 14:31 46.24904 4.96278 37918 ft 462 kts 333°
2026-05-06 14:32 46.30791 4.92500 37914 ft 463 kts 333°
2026-05-06 14:32 46.36692 4.88711 37911 ft 464 kts 333°
2026-05-06 14:33 46.42561 4.84933 37906 ft 465 kts 333°
2026-05-06 14:33 46.48480 4.81114 37913 ft 466 kts 333°
2026-05-06 14:34 46.54414 4.77276 37902 ft 467 kts 333°
2026-05-06 14:34 46.60351 4.73426 37887 ft 467 kts 333°
2026-05-06 14:35 46.66243 4.69597 37884 ft 467 kts 333°
2026-05-06 14:35 46.72168 4.65736 37880 ft 466 kts 333°
2026-05-06 14:36 46.78083 4.61873 37875 ft 466 kts 333°
2026-05-06 14:36 46.83994 4.58010 37877 ft 465 kts 333°
2026-05-06 14:37 46.89901 4.54170 37881 ft 464 kts 334°
2026-05-06 14:37 46.95762 4.50354 37889 ft 464 kts 334°
2026-05-06 14:38 47.01647 4.46510 37878 ft 463 kts 334°
2026-05-06 14:38 47.07522 4.42660 37878 ft 462 kts 334°
2026-05-06 14:39 47.13383 4.38810 37879 ft 461 kts 334°
2026-05-06 14:39 47.19195 4.34983 37877 ft 460 kts 334°
2026-05-06 14:40 47.25034 4.31130 37882 ft 459 kts 334°
2026-05-06 14:40 47.30860 4.27275 37890 ft 459 kts 334°
2026-05-06 14:41 47.36686 4.23410 37883 ft 459 kts 334°
2026-05-06 14:41 47.42474 4.19561 37886 ft 459 kts 334°
2026-05-06 14:42 47.48301 4.15677 37911 ft 460 kts 334°
2026-05-06 14:42 47.54137 4.11778 37896 ft 460 kts 334°
2026-05-06 14:43 47.59981 4.07874 37891 ft 461 kts 334°
2026-05-06 14:43 47.65828 4.03966 37903 ft 461 kts 334°
2026-05-06 14:44 47.71639 4.00070 37885 ft 462 kts 334°
2026-05-06 14:45 47.80421 3.94163 37918 ft 462 kts 334°
2026-05-06 14:45 47.86284 3.90205 37910 ft 463 kts 333°
2026-05-06 14:46 47.92120 3.86256 37887 ft 464 kts 333°
2026-05-06 14:46 47.97986 3.82278 37911 ft 463 kts 333°
2026-05-06 14:47 48.03840 3.78297 37895 ft 462 kts 333°
2026-05-06 14:47 48.09686 3.74312 37896 ft 461 kts 333°
2026-05-06 14:48 48.15321 3.69972 37889 ft 456 kts 322°
2026-05-06 14:48 48.19945 3.63609 37919 ft 451 kts 310°
2026-05-06 14:49 48.24141 3.56622 37898 ft 450 kts 310°
2026-05-06 14:49 48.28355 3.49677 37893 ft 450 kts 310°
2026-05-06 14:50 48.32549 3.42835 37919 ft 449 kts 311°
2026-05-06 14:50 48.36783 3.35923 37898 ft 449 kts 311°
2026-05-06 14:51 48.41358 3.29541 37901 ft 451 kts 324°
2026-05-06 14:51 48.46972 3.25273 37922 ft 454 kts 336°
2026-05-06 14:52 48.52787 3.21699 37903 ft 455 kts 336°
2026-05-06 14:52 48.58647 3.18042 37901 ft 456 kts 335°
2026-05-06 14:53 48.64499 3.14305 37898 ft 457 kts 335°
2026-05-06 14:53 48.70366 3.10529 37909 ft 459 kts 335°
2026-05-06 14:54 48.76212 3.06758 37895 ft 461 kts 335°
2026-05-06 14:54 48.82117 3.02945 37906 ft 462 kts 335°
2026-05-06 14:55 48.87895 2.98718 37895 ft 460 kts 329°
2026-05-06 14:55 48.93418 2.93796 37900 ft 460 kts 327°
2026-05-06 14:56 48.98925 2.88820 37896 ft 461 kts 328°
2026-05-06 14:56 49.04418 2.83938 37898 ft 460 kts 328°
2026-05-06 14:57 49.09950 2.79058 37908 ft 458 kts 328°
2026-05-06 14:57 49.15462 2.74191 37903 ft 457 kts 328°
2026-05-06 14:58 49.20952 2.69327 37907 ft 455 kts 328°
2026-05-06 14:58 49.26387 2.64496 37916 ft 454 kts 328°
2026-05-06 14:59 49.31841 2.59636 37903 ft 453 kts 328°
2026-05-06 14:59 49.37277 2.54780 37914 ft 451 kts 328°
2026-05-06 15:00 49.42695 2.49925 37918 ft 450 kts 328°
2026-05-06 15:00 49.48058 2.45111 37929 ft 449 kts 328°
2026-05-06 15:01 49.53279 2.39899 37919 ft 447 kts 319°
2026-05-06 15:01 49.55667 2.36785 37431 ft 452 kts 317°
2026-05-06 15:01 49.58023 2.33591 36941 ft 450 kts 317°
2026-05-06 15:01 49.60362 2.30394 36393 ft 449 kts 317°
2026-05-06 15:02 49.62691 2.27227 36007 ft 444 kts 317°
2026-05-06 15:02 49.65009 2.24099 35600 ft 441 kts 318°
2026-05-06 15:02 49.67282 2.21049 35209 ft 437 kts 318°
2026-05-06 15:02 49.69572 2.17988 34806 ft 434 kts 318°
2026-05-06 15:03 49.71846 2.14953 34411 ft 431 kts 318°
2026-05-06 15:03 49.74106 2.11934 34013 ft 428 kts 318°
2026-05-06 15:03 49.76349 2.08936 33562 ft 425 kts 319°
2026-05-06 15:03 49.78570 2.05962 33122 ft 421 kts 319°
2026-05-06 15:04 49.80778 2.03002 32730 ft 417 kts 319°
2026-05-06 15:04 49.82963 2.00067 32340 ft 413 kts 319°
2026-05-06 15:04 49.85124 1.97161 31965 ft 409 kts 319°
2026-05-06 15:04 49.87238 1.94316 31578 ft 406 kts 319°
2026-05-06 15:05 49.89360 1.91455 31201 ft 403 kts 319°
2026-05-06 15:05 49.91465 1.88612 30829 ft 400 kts 319°
2026-05-06 15:05 49.93556 1.85787 30461 ft 397 kts 319°
2026-05-06 15:05 49.95630 1.82982 30096 ft 394 kts 319°
2026-05-06 15:06 49.97687 1.80195 29685 ft 391 kts 318°
2026-05-06 15:06 49.99726 1.77431 29310 ft 387 kts 319°
2026-05-06 15:06 50.01744 1.74690 28918 ft 383 kts 319°
2026-05-06 15:06 50.03740 1.71978 28558 ft 379 kts 318°
2026-05-06 15:07 50.05693 1.69321 28178 ft 376 kts 318°
2026-05-06 15:07 50.07656 1.66649 27816 ft 374 kts 318°
2026-05-06 15:07 50.09608 1.64002 27465 ft 370 kts 318°
2026-05-06 15:07 50.11553 1.61370 27092 ft 371 kts 318°
2026-05-06 15:08 50.13505 1.58725 26733 ft 373 kts 319°
2026-05-06 15:08 50.15459 1.56076 26363 ft 371 kts 318°
2026-05-06 15:08 50.17399 1.53442 25975 ft 368 kts 318°
2026-05-06 15:08 50.19325 1.50821 25623 ft 366 kts 318°
2026-05-06 15:09 50.21269 1.48172 25285 ft 381 kts 317°
2026-05-06 15:09 50.23322 1.45367 24922 ft 403 kts 318°
2026-05-06 15:09 50.25433 1.42484 24475 ft 398 kts 317°
2026-05-06 15:09 50.27484 1.39684 24074 ft 385 kts 317°
2026-05-06 15:10 50.29470 1.36971 23696 ft 373 kts 317°
2026-05-06 15:10 50.31372 1.34369 23296 ft 363 kts 317°
2026-05-06 15:10 50.33244 1.31802 22908 ft 352 kts 317°
2026-05-06 15:10 50.35052 1.29319 22569 ft 341 kts 317°
2026-05-06 15:11 50.36812 1.26900 22227 ft 333 kts 317°
2026-05-06 15:11 50.38532 1.24531 21893 ft 326 kts 317°
2026-05-06 15:11 50.40228 1.22194 21596 ft 325 kts 317°
2026-05-06 15:11 50.41955 1.19809 21289 ft 339 kts 317°
2026-05-06 15:12 50.43738 1.17345 20930 ft 341 kts 317°
2026-05-06 15:12 50.45497 1.14916 20561 ft 332 kts 317°
2026-05-06 15:12 50.47187 1.12581 20231 ft 324 kts 317°
2026-05-06 15:12 50.48886 1.10230 19909 ft 318 kts 317°
2026-05-06 15:13 50.50513 1.07975 19607 ft 316 kts 317°
2026-05-06 15:13 50.52158 1.05624 19313 ft 327 kts 314°
2026-05-06 15:13 50.53741 1.03031 18980 ft 327 kts 311°
2026-05-06 15:13 50.55259 1.00419 18637 ft 319 kts 311°
2026-05-06 15:14 50.56740 0.97859 18317 ft 314 kts 311°
2026-05-06 15:14 50.58204 0.95340 17974 ft 309 kts 312°
2026-05-06 15:14 50.59664 0.92845 17633 ft 313 kts 312°
2026-05-06 15:14 50.61168 0.90282 17315 ft 322 kts 312°
2026-05-06 15:15 50.62677 0.87721 16958 ft 315 kts 312°
2026-05-06 15:15 50.64126 0.85261 16630 ft 307 kts 312°
2026-05-06 15:15 50.65564 0.82821 16343 ft 301 kts 312°
2026-05-06 15:15 50.66983 0.80408 16038 ft 301 kts 312°
2026-05-06 15:16 50.68376 0.77905 16006 ft 305 kts 309°
2026-05-06 15:16 50.69695 0.75340 15948 ft 295 kts 308°
2026-05-06 15:16 50.70939 0.72875 15940 ft 280 kts 308°
2026-05-06 15:16 50.72113 0.70547 15937 ft 262 kts 308°
2026-05-06 15:17 50.73238 0.68321 15429 ft 263 kts 308°
2026-05-06 15:17 50.74431 0.65967 14352 ft 287 kts 308°
2026-05-06 15:17 50.75718 0.63431 13459 ft 301 kts 309°
2026-05-06 15:17 50.77011 0.60885 12856 ft 301 kts 309°
2026-05-06 15:18 50.78316 0.58317 12332 ft 298 kts 309°
2026-05-06 15:18 50.79601 0.55789 11887 ft 293 kts 309°
2026-05-06 15:18 50.80869 0.53289 11469 ft 290 kts 309°
2026-05-06 15:18 50.82117 0.50828 11056 ft 285 kts 309°
2026-05-06 15:19 50.83345 0.48405 10660 ft 280 kts 309°
2026-05-06 15:19 50.84554 0.46016 10267 ft 276 kts 310°
2026-05-06 15:19 50.85745 0.43660 9879 ft 272 kts 310°
2026-05-06 15:19 50.86916 0.41343 9463 ft 268 kts 310°
2026-05-06 15:20 50.88064 0.39070 9070 ft 263 kts 310°
2026-05-06 15:20 50.89181 0.36855 8697 ft 258 kts 310°
2026-05-06 15:20 50.90292 0.34651 8335 ft 255 kts 310°
2026-05-06 15:20 50.91395 0.32465 8031 ft 252 kts 310°
2026-05-06 15:21 50.92476 0.30315 7993 ft 245 kts 310°
2026-05-06 15:21 50.93511 0.28258 7974 ft 231 kts 310°
2026-05-06 15:21 50.94460 0.26316 7962 ft 216 kts 303°
2026-05-06 15:21 50.94843 0.24064 8002 ft 217 kts 275°
2026-05-06 15:22 50.94903 0.21690 7998 ft 211 kts 275°
2026-05-06 15:22 50.94987 0.19407 8016 ft 211 kts 276°
2026-05-06 15:22 50.95081 0.16971 8004 ft 227 kts 276°
2026-05-06 15:22 50.95166 0.14493 7997 ft 228 kts 276°
2026-05-06 15:23 50.95247 0.11971 7981 ft 230 kts 276°
2026-05-06 15:23 50.95333 0.09429 7971 ft 231 kts 275°
2026-05-06 15:23 50.95422 0.06880 7804 ft 233 kts 275°
2026-05-06 15:23 50.95526 0.04308 7554 ft 234 kts 276°
2026-05-06 15:24 50.95627 0.01729 7301 ft 234 kts 277°
2026-05-06 15:24 50.95720 -0.00820 7070 ft 229 kts 276°
2026-05-06 15:24 50.95814 -0.03292 6980 ft 222 kts 276°
2026-05-06 15:24 50.95896 -0.05733 6971 ft 222 kts 276°
2026-05-06 15:25 50.95976 -0.08155 6980 ft 223 kts 276°
2026-05-06 15:25 50.96059 -0.10617 6975 ft 224 kts 276°
2026-05-06 15:25 50.96140 -0.13078 6964 ft 223 kts 276°
2026-05-06 15:25 50.96216 -0.15528 6964 ft 222 kts 276°
2026-05-06 15:26 50.96294 -0.17971 6960 ft 221 kts 276°
2026-05-06 15:26 50.96374 -0.20404 6963 ft 221 kts 276°
2026-05-06 15:26 50.96450 -0.22835 6965 ft 221 kts 276°
2026-05-06 15:26 50.96524 -0.25264 6968 ft 220 kts 276°
2026-05-06 15:27 50.96598 -0.27692 6966 ft 221 kts 276°
2026-05-06 15:27 50.96674 -0.30148 6699 ft 230 kts 276°
2026-05-06 15:27 50.97054 -0.32579 6168 ft 231 kts 304°
2026-05-06 15:27 50.98125 -0.34429 5790 ft 226 kts 316°
2026-05-06 15:28 50.99227 -0.36186 5384 ft 223 kts 316°
2026-05-06 15:28 51.00301 -0.37952 5002 ft 221 kts 316°
2026-05-06 15:28 51.01359 -0.39713 4622 ft 220 kts 315°
2026-05-06 15:28 51.02411 -0.41468 4226 ft 218 kts 315°
2026-05-06 15:29 51.03456 -0.43208 3845 ft 218 kts 316°
2026-05-06 15:29 51.04493 -0.44953 3468 ft 217 kts 316°
2026-05-06 15:29 51.05532 -0.46687 3075 ft 216 kts 315°
2026-05-06 15:29 51.06217 -0.47782 3006 ft 205 kts 322°
2026-05-06 15:30 51.07848 -0.48363 2992 ft 178 kts 21°
2026-05-06 15:30 51.08732 -0.47082 3019 ft 176 kts 51°
2026-05-06 15:30 51.09424 -0.45591 3002 ft 181 kts 51°
2026-05-06 15:30 51.10173 -0.43965 2898 ft 186 kts 51°
2026-05-06 15:31 51.10958 -0.42296 2663 ft 188 kts 50°
2026-05-06 15:31 51.11471 -0.41188 2484 ft 187 kts 51°
2026-05-06 15:31 51.12028 -0.39328 2227 ft 187 kts 71°
2026-05-06 15:32 51.12584 -0.35374 2000 ft 176 kts 73°
2026-05-06 15:32 51.12908 -0.32973 1815 ft 160 kts 72°
2026-05-06 15:32 51.13141 -0.31264 1664 ft 154 kts 73°
2026-05-06 15:32 51.13294 -0.30151 1563 ft 151 kts 73°
2026-05-06 15:33 51.13502 -0.28512 1384 ft 151 kts 73°
2026-05-06 15:33 51.13714 -0.26998 1099 ft 150 kts 71°
2026-05-06 15:33 51.13925 -0.25495 851 ft 147 kts 73°
2026-05-06 15:33 51.14137 -0.23927 656 ft 143 kts 74°
2026-05-06 15:34 51.14349 -0.22394 480 ft 142 kts 75°
2026-05-06 15:34 51.14567 -0.20817 281 ft 147 kts 75°
2026-05-06 15:34 51.14779 -0.19267 206 ft 134 kts 73°
2026-05-06 15:34 51.14957 -0.18006 213 ft 96 kts 77°
2026-05-06 15:35 51.15070 -0.17204 203 ft 53 kts 77°
2026-05-06 15:35 51.15151 -0.16808 206 ft 31 kts 29°
2026-05-06 15:35 51.15239 -0.16839 207 ft 8 kts 288°
2026-05-06 15:35 51.15222 -0.16918 207 ft 8 kts 251°
2026-05-06 15:36 51.15208 -0.16999 203 ft 7 kts 256°
2026-05-06 15:36 51.15198 -0.17078 207 ft 7 kts 264°
2026-05-06 15:36 51.15221 -0.17147 209 ft 7 kts 315°
2026-05-06 15:36 51.15262 -0.17194 205 ft 8 kts 326°
2026-05-06 15:37 51.15312 -0.17231 208 ft 8 kts 343°
2026-05-06 15:37 51.15366 -0.17259 210 ft 8 kts 316°
2026-05-06 15:37 51.15372 -0.17345 203 ft 8 kts 290°
2026-05-06 15:37 51.15419 -0.17389 208 ft 8 kts 351°
2026-05-06 15:38 51.15472 -0.17412 205 ft 8 kts 342°
2026-05-06 15:38 51.15525 -0.17432 213 ft 8 kts 349°
2026-05-06 15:38 51.15583 -0.17451 214 ft 10 kts 347°
2026-05-06 15:38 51.15656 -0.17477 209 ft 12 kts 347°
2026-05-06 15:39 51.15736 -0.17511 207 ft 12 kts 324°
2026-05-06 15:39 51.15743 -0.17636 208 ft 13 kts 255°
2026-05-06 15:39 51.15723 -0.17779 203 ft 14 kts 258°
2026-05-06 15:39 51.15702 -0.17935 212 ft 15 kts 256°
2026-05-06 15:40 51.15753 -0.18048 210 ft 15 kts 348°
2026-05-06 15:40 51.15851 -0.18081 203 ft 14 kts 347°
2026-05-06 15:40 51.15944 -0.18114 203 ft 13 kts 348°
2026-05-06 15:40 51.16032 -0.18144 208 ft 13 kts 353°
2026-05-06 15:41 51.16054 -0.18110 209 ft 4 kts 87°
2026-05-06 15:41 51.16060 -0.18048 207 ft 3 kts 78°
2026-05-06 15:41 51.16062 -0.18032 204 ft 0 kts 78°